map of BQS home
Great Circle Mapper logo
BQS - Airport
Location
City:  Blagoveschensk, Amur, Russian Federation (Russia)
Name:Ignatyevo
ICAO / IATA:UHBB / BQS

Details
Type:Airport (Aerodrome, Airfield)
Use:Public/Civil
Latitude:5025'31"N (50.425394)
Longitude:12724'45"E (127.412478)
Datum:WGS 1984
Elevation:638 ft (194 m)
Runways:1
Longest:9256 × 148 ft (2821 × 45 m), paved

Time
Time Zone:UTC+9 (DST+10)

Weather
METAR:UHBB 230900Z 10002MPS CAVOK 05/M05 Q1007 NOSIG RMK QFE738/0984 36090060
TAF:UHBB 230740Z 2309/2409 33003MPS 9999 SCT030 BKN100= TAF UHSS 230800Z 2309/2415 22004MPS 9999 SCT030CB 530007
BECMG 2400/2402 23005G10MPS
BECMG 2407/2409 22003MPS

Related Locations
Nearby:
Farthest:PSY: 12195 mi / 19626 km
Stanley (Port Stanley) [Port Stanley], FK

Find:

   beyond  
but within

Other Information
Maps:
NOTAMs:
Links:
Sources:

  
flag of Russian Federation (Russia)   

Sectional Chart

Flight Planning
at skyvector.com

Satellite Image

Google Maps Satellite View

 

Copyright © 2004-2014 Karl L. Swartz. All rights reserved.
The Great Circle Mapper name and logo are trademarks of the Great Circle Mapper.
All other trademarks mentioned herein belong to their respective owners.
Please see credits for attibutions and further copyright information.

  Follow gcmap on Facebook Follow gcmap on Twitter

hCard Microformat

Geo Microformat